Temperature
19 19 19 19 19 18 18 18 18 18 18 18 18 18 18 18 18 18 18 18 18 18 18 18 18 18 18 18 18 18 17 17 17 17 17 17 17 17 17 17 17 17 17
19 19 18 19 19 18 18 18 18 18 18 18 18 18 18 18 18 18 18 18 18 18 18 18 18 18 18 18 18 18 17 17 17 17 17 17 17 17 17 17 17 17 17
18 18 18 18 18 18 18 18 18 18 18 18 18 18 18 18 18 18 18 18 18 18 18 18 18 18 18 18 18 17 17 17 17 17 17 17 17 17 17 17 17 17 17
18 18 18 18 18 18 18 18 18 18 18 18 18 18 18 18 18 18 18 18 18 18 18 17 17 17 17 17 17 17 17 17 17 17 17 17 17 17 17 17 17 17 16
18 18 18 18 18 18 18 18 18 18 18 18 18 18 18 18 17 17 17 17 17 17 17 17 17 17 17 17 17 17 17 17 17 17 17 17 17 17 17 17 17 16 16
18 18 18 18 18 18 18 18 18 18 18 18 18 18 17 17 17 17 17 17 17 17 17 17 17 17 17 17 17 17 17 17 17 17 17 17 17 17 17 16 16 16 16
18 18 18 18 18 18 18 18 18 18 18 18 18 17 17 17 17 17 17 17 17 17 17 17 17 17 17 17 17 17 17 17 17 17 16 16 16 16 16 16 16 16 16
18 18 18 18 18 18 18 18 18 18 17 17 17 17 17 17 17 17 17 17 17 17 17 17 17 17 17 17 17 17 17 17 17 16 16 16 16 16 16 16 16 16 16
18 18 18 18 18 18 18 18 17 18 17 17 17 17 17 17 17 17 17 17 17 17 17 17 17 17 17 17 17 17 17 17 17 16 16 16 16 16 16 16 16 16 16
18 18 18 18 18 18 17 17 17 17 17 17 17 17 17 17 17 17 17 17 17 17 17 17 17 17 17 17 17 17 17 16 16 16 16 16 16 16 16 16 16 16 16
18 18 18 17 18 17 17 17 17 17 17 17 17 17 17 17 17 16 16 17 17 17 17 17 17 17 17 17 17 17 16 16 16 16 16 16 16 16 16 16 16 16 16
18 18 17 17 17 17 17 17 17 17 17 17 17 17 16 16 16 16 16 16 16 16 16 16 17 17 17 16 16 16 16 16 16 16 16 16 16 16 16 16 16 16 16
18 18 17 17 17 17 17 17 17 17 17 16 16 16 16 16 16 16 16 16 16 16 16 16 16 16 16 16 16 16 16 16 16 16 16 16 16 16 16 15 15 15 15
18 18 17 17 17 17 17 16 16 16 16 16 16 16 16 16 16 16 16 15 15 15 15 15 16 16 16 16 16 16 16 16 15 15 15 15 15 15 15 15 15 15 15
18 17 17 17 17 17 16 16 16 16 16 16 16 16 16 16 15 15 15 15 15 15 15 15 15 15 15 15 15 15 15 15 15 15 15 15 15 15 15 15 15 15 15
17 17 17 17 16 16 16 16 16 16 16 16 15 15 15 15 15 15 15 15 15 14 14 14 14 15 15 15 15 15 15 15 15 15 15 15 15 15 15 15 15 15 15
17 17 17 16 16 16 16 16 16 15 15 15 15 15 15 15 15 15 14 14 14 14 14 14 14 14 14 14 14 14 14 15 15 15 15 15 15 15 15 15 15 14 14
17 17 16 16 16 16 16 16 15 15 15 15 15 15 15 14 14 14 14 14 14 14 14 14 14 14 14 14 14 14 14 14 14 14 14 14 14 14 14 14 14 14 14
16 16 16 16 16 16 16 15 15 15 15 15 15 14 14 14 14 14 14 14 14 13 13 13 13 13 13 13 14 14 14 14 14 14 14 14 14 14 14 14 14 14 14
16 16 16 16 16 15 15 15 15 15 15 15 14 14 14 14 14 14 13 13 13 13 13 13 13 13 13 13 13 13 13 13 13 13 13 13 13 14 14 14 14 14 14
16 16 16 16 15 15 15 15 15 15 14 14 14 14 14 14 13 13 13 13 13 13 12 12 12 12 12 12 12 12 12 13 13 13 13 13 13 13 13 13 13 13 13
16 16 15 15 15 15 15 15 14 14 14 14 14 14 13 13 13 13 13 13 12 12 12 12 12 12 12 12 12 12 12 12 12 13 12 13 13 13 13 13 13 13 13
16 15 15 15 15 15 15 14 14 14 14 13 13 13 13 13 13 13 13 12 12 12 12 12 12 12 12 12 12 12 12 12 12 12 12 12 12 12 13 13 13 13 13
15 15 15 15 15 14 14 14 14 13 13 13 13 13 13 13 12 12 12 12 12 12 12 12 11 11 11 11 11 11 11 11 12 12 12 12 12 12 12 12 12 12 12
15 15 15 15 14 14 14 14 13 13 13 13 13 13 12 12 12 12 12 12 12 12 11 11 11 11 11 11 11 11 11 11 11 11 11 11 11 12 12 12 12 12 12
15 15 14 14 14 14 14 13 13 13 13 13 12 12 12 12 12 12 12 11 11 11 11 11 11 11 11 11 11 11 11 11 10 10 11 11 11 11 11 11 11 11 11
Wind_Speed
1 1 2 2 2 1 1 1 1 1 1 1 2 2 3 4 4 5 4 6 8 8 8 8 9 10 10 11 11 11 11 12 12 12 12 12 12 12 12 11 11 11 10
1 1 1 2 2 1 0 1 1 0 0 1 1 1 3 3 3 4 4 5 6 6 7 8 9 9 9 10 10 11 12 12 12 12 12 12 12 12 11 11 12 12 11
1 1 1 2 2 2 2 2 1 1 1 1 1 1 1 2 2 3 3 4 4 5 6 7 9 9 8 9 10 10 11 12 12 12 12 12 11 11 11 11 11 12 12
2 2 1 1 2 2 2 2 2 2 2 1 1 0 1 1 1 2 2 3 3 4 5 7 7 8 8 9 10 10 11 12 13 13 13 13 12 12 12 12 11 11 11
2 2 1 1 2 2 2 2 2 2 1 1 0 0 1 1 1 1 1 2 2 3 4 5 5 6 7 9 10 11 11 11 12 13 13 13 13 13 12 12 12 12 11
2 2 2 2 2 2 2 2 2 2 1 0 1 1 1 0 1 1 1 1 1 2 3 3 3 4 5 5 6 8 9 9 10 11 12 12 12 12 12 12 13 12 12
2 3 2 2 2 2 2 2 2 2 2 1 2 2 2 2 2 1 0 0 1 2 2 3 3 3 4 4 4 5 5 6 7 8 10 11 11 10 10 10 10 11 11
2 3 2 2 2 2 3 2 2 1 2 2 1 1 2 2 2 2 0 0 1 1 1 2 2 3 4 4 3 4 5 5 6 7 8 8 9 10 9 9 9 10 11
3 2 2 2 2 2 1 1 1 2 1 1 2 2 2 1 1 2 1 1 1 0 1 1 2 3 3 4 4 5 5 6 6 6 6 6 7 7 8 8 9 9 9
2 2 2 2 2 1 1 1 1 1 2 1 1 1 1 1 1 1 2 1 1 1 1 1 2 1 2 3 4 4 4 5 6 6 6 6 7 7 7 7 8 9 9
2 2 2 2 1 1 1 1 2 2 1 1 1 1 1 1 1 1 1 2 2 1 1 1 1 2 2 2 2 3 4 5 5 5 5 5 6 7 8 8 8 8 9
1 1 2 2 1 1 1 1 2 2 2 2 1 1 1 1 1 1 1 1 2 2 2 1 1 2 2 2 2 2 3 4 5 6 6 6 6 6 6 6 7 7 7
1 1 2 2 1 1 1 2 2 1 1 2 1 1 1 1 1 1 1 1 2 2 2 1 1 2 2 2 2 2 2 3 4 5 6 5 5 6 6 6 6 7 7
3 3 2 2 2 2 2 2 2 1 1 1 1 1 1 1 1 1 2 2 1 2 2 2 1 2 2 2 2 2 2 3 3 4 5 5 5 5 5 5 5 5 5
3 2 2 2 2 2 2 2 2 1 1 1 1 1 1 1 1 1 1 2 2 2 3 3 2 2 2 2 2 2 2 2 3 3 4 4 5 5 5 5 5 5 5
2 2 2 2 2 2 2 2 1 1 1 0 0 1 0 1 0 1 1 2 2 3 3 2 2 3 2 2 2 2 2 2 2 3 3 3 4 5 5 5 6 5 5
3 3 3 3 2 2 2 2 2 1 1 0 1 1 1 0 0 0 0 1 1 2 2 3 2 2 2 2 2 2 2 1 2 2 2 2 2 3 4 6 6 6 5
3 3 3 2 2 2 2 2 2 2 2 1 1 0 1 0 0 0 0 1 1 2 2 3 2 2 2 2 2 1 2 2 2 2 3 3 2 2 2 2 4 5 5
3 3 3 3 2 2 2 2 3 2 2 2 2 2 2 1 1 1 1 1 1 1 1 2 2 2 2 2 1 2 2 2 2 3 3 3 3 2 2 2 4 6 6
4 3 3 3 2 2 2 2 2 2 2 2 2 2 3 3 2 2 1 1 1 1 1 1 2 2 2 2 1 1 2 2 2 3 3 3 3 3 3 4 4 6 7
4 3 3 2 2 3 3 3 3 3 2 2 2 3 3 3 2 2 2 2 2 2 1 1 2 2 2 1 1 1 2 3 2 2 2 2 2 2 3 4 5 6 6
2 2 3 3 3 3 3 4 3 3 2 3 3 3 3 2 3 3 3 2 3 3 3 2 2 3 4 3 2 2 2 2 3 1 1 3 2 3 3 3 5 6 6
3 2 2 3 3 3 3 3 3 2 2 3 3 3 3 3 2 2 3 2 3 3 4 4 4 5 4 4 3 3 3 3 4 3 1 3 3 3 4 4 6 7 7
3 3 3 3 3 3 3 3 3 2 2 2 2 3 4 3 3 1 2 2 3 3 4 3 4 5 4 4 4 3 4 3 3 3 2 3 3 3 4 5 5 5 6
2 2 2 3 3 3 3 3 3 2 2 2 2 3 3 3 4 2 1 2 3 3 3 2 3 4 4 3 2 1 1 2 3 3 2 2 2 3 4 4 4 5 5
2 2 2 2 3 3 3 3 3 2 2 2 2 2 3 3 4 3 3 3 4 4 3 3 3 3 2 2 3 3 3 3 2 2 1 1 2 2 3 2 2 3 3
Wind_Direction
49 34 16 9 5 9 32 77 100 103 115 153 167 178 189 192 197 199 203 206 211 209 209 213 215 216 216 216 214 213 212 211 207 204 205 207 208 207 206 206 207 207 208
69 44 23 20 9 0 46 107 126 138 123 130 146 174 192 187 192 198 204 211 216 218 220 220 220 220 219 218 218 219 217 215 213 211 211 212 211 210 211 211 212 212 211
131 90 42 25 11 27 56 74 75 78 79 82 102 121 153 169 185 201 204 211 220 228 235 234 230 225 224 222 222 225 222 217 213 213 214 212 210 211 213 215 215 213 212
132 103 69 18 20 55 66 74 68 70 54 57 58 57 124 160 193 194 192 205 223 237 243 242 236 234 234 231 230 230 228 223 219 217 217 215 214 215 217 217 216 215 216
126 112 73 24 45 63 57 65 70 78 76 56 54 71 91 146 191 193 185 200 213 230 243 250 246 245 247 242 237 233 230 226 220 219 222 222 220 218 219 221 219 217 217
120 114 84 54 69 66 54 62 76 65 67 69 65 45 41 52 138 183 215 216 223 234 237 244 245 257 262 253 241 235 231 228 221 221 224 225 225 223 222 226 225 221 221
121 112 88 73 76 79 71 78 91 74 44 41 71 41 26 33 42 21 258 219 236 247 237 241 243 246 257 256 244 235 235 231 223 225 230 230 225 222 224 228 230 227 225
117 121 116 112 88 80 62 60 78 87 42 39 84 80 20 360 8 8 349 259 275 268 251 244 240 236 242 247 249 245 247 244 236 231 229 230 229 227 226 227 226 227 227
124 120 119 113 98 99 92 59 82 121 110 37 51 119 138 227 316 342 345 0 352 339 276 272 253 254 252 248 248 247 246 249 247 244 232 221 224 225 223 225 228 228 230
117 125 124 127 124 120 116 107 100 123 132 111 41 46 113 159 165 325 340 349 2 12 348 316 304 294 284 267 252 243 245 248 245 244 239 233 227 225 226 225 228 229 229
96 111 118 118 129 130 132 112 95 98 121 142 141 115 83 60 88 166 290 328 342 331 329 317 317 316 299 280 263 252 246 246 245 242 235 233 232 231 233 232 232 234 231
91 103 121 133 141 156 159 137 114 101 110 116 119 118 142 146 176 169 214 281 303 308 320 336 347 325 319 299 281 263 248 245 241 235 236 238 240 240 240 239 236 238 236
183 201 161 149 159 173 154 128 119 117 126 126 140 150 163 200 194 183 186 243 287 307 319 327 321 325 326 323 310 284 259 252 244 239 238 242 246 246 241 239 238 239 241
197 191 169 165 170 161 149 130 121 146 123 137 145 162 164 230 204 191 186 188 274 308 309 295 315 311 313 309 307 293 283 265 257 254 244 242 243 242 239 236 236 236 236
189 167 163 164 163 150 148 140 139 164 134 145 171 178 196 238 207 216 200 195 193 252 281 290 296 303 304 306 307 303 288 287 287 279 256 248 248 242 236 233 230 230 234
169 153 162 166 158 143 134 127 130 131 118 118 146 71 360 307 239 218 208 214 211 215 249 268 269 293 304 309 322 313 295 318 318 307 287 277 271 254 238 233 228 226 228
178 176 178 172 166 161 154 147 164 152 139 79 44 80 334 303 30 297 191 196 213 207 237 275 279 296 284 310 341 333 320 338 334 316 308 300 289 269 249 236 232 229 227
183 185 179 173 173 164 166 171 189 177 172 187 231 219 278 273 10 351 350 223 231 219 213 260 290 297 287 299 325 321 334 329 319 321 302 290 276 277 288 260 240 230 228
186 190 175 180 187 188 194 199 192 191 205 221 227 233 248 217 256 282 278 260 251 242 225 240 278 290 291 306 322 328 329 319 322 328 321 298 278 280 280 272 256 237 235
184 192 187 188 191 188 193 198 195 196 213 233 239 240 240 218 224 238 243 242 242 242 226 238 273 289 285 289 295 307 320 324 312 327 328 322 300 282 272 266 268 255 241
197 192 183 186 194 203 207 198 204 209 218 245 260 259 252 244 242 242 248 231 220 226 219 241 267 285 285 286 279 275 288 305 298 300 305 315 316 303 291 278 273 271 257
198 186 191 196 209 228 222 209 204 208 224 238 254 269 274 268 281 280 273 239 209 209 213 226 249 257 268 266 262 262 270 290 294 303 285 299 300 288 286 277 277 273 265
197 207 210 203 217 233 223 218 210 205 222 234 243 261 276 282 299 287 292 291 260 240 225 220 235 244 247 243 244 261 259 255 263 285 281 285 287 278 281 287 282 271 267
205 212 213 212 218 235 226 222 214 212 228 240 242 250 257 269 273 269 288 300 282 267 256 234 227 236 240 237 225 235 247 261 270 274 252 269 281 282 292 291 288 279 277
212 214 212 203 211 243 226 214 190 189 224 247 255 254 252 253 261 236 234 270 286 286 279 271 259 255 254 240 204 202 236 257 279 282 239 248 281 291 291 287 291 289 284
209 200 215 218 216 234 230 211 187 188 222 253 265 263 253 253 247 230 220 234 262 278 286 296 301 296 279 251 220 206 210 223 252 272 247 241 279 301 299 296 307 318 309
Height
1528 1529 1529 1528 1529 1529 1529 1529 1529 1530 1531 1532 1533 1534 1535 1536 1537 1538 1540 1541 1542 1543 1544 1545 1546 1547 1548 1548 1549 1550 1551 1552 1553 1555 1556 1557 1558 1560 1561 1562 1564 1565 1566
1529 1529 1529 1529 1529 1529 1529 1529 1530 1530 1531 1532 1532 1533 1534 1535 1536 1537 1538 1539 1540 1541 1542 1543 1544 1545 1546 1547 1547 1548 1549 1550 1551 1553 1554 1555 1556 1558 1559 1560 1561 1563 1564
1530 1530 1530 1530 1530 1530 1530 1530 1530 1530 1531 1531 1531 1532 1532 1534 1535 1536 1537 1538 1539 1540 1541 1542 1543 1544 1544 1545 1545 1546 1547 1548 1549 1551 1552 1553 1554 1555 1556 1558 1559 1560 1562
1531 1531 1531 1531 1531 1530 1530 1530 1530 1530 1530 1531 1531 1531 1531 1532 1533 1534 1535 1536 1537 1538 1539 1540 1541 1542 1542 1543 1543 1544 1545 1546 1546 1548 1549 1550 1551 1553 1554 1555 1556 1558 1559
1531 1531 1531 1531 1531 1531 1530 1530 1530 1530 1530 1530 1531 1530 1531 1531 1532 1533 1534 1535 1536 1536 1537 1538 1539 1540 1541 1541 1541 1542 1543 1543 1544 1545 1547 1548 1549 1550 1551 1552 1554 1555 1556
1531 1531 1531 1531 1531 1531 1531 1530 1530 1530 1530 1530 1530 1530 1530 1531 1531 1532 1532 1533 1534 1535 1536 1537 1538 1538 1539 1539 1539 1540 1540 1541 1542 1543 1544 1545 1546 1547 1548 1549 1550 1552 1553
1531 1531 1531 1531 1531 1531 1531 1530 1530 1530 1529 1530 1530 1530 1531 1531 1531 1531 1532 1533 1534 1534 1535 1535 1536 1537 1537 1537 1537 1538 1538 1539 1539 1540 1541 1542 1543 1544 1545 1546 1547 1548 1550
1531 1531 1531 1531 1531 1531 1531 1531 1530 1530 1530 1530 1530 1530 1530 1532 1530 1531 1532 1532 1532 1533 1534 1534 1535 1535 1536 1536 1536 1536 1536 1537 1537 1537 1538 1539 1540 1541 1543 1543 1544 1545 1546
1530 1531 1531 1531 1531 1531 1530 1530 1530 1530 1530 1530 1530 1531 1530 1530 1530 1531 1531 1531 1532 1532 1532 1533 1533 1533 1534 1534 1534 1534 1534 1535 1535 1536 1536 1537 1538 1539 1540 1541 1541 1542 1543
1530 1530 1530 1530 1530 1530 1530 1530 1530 1530 1530 1529 1529 1529 1530 1530 1530 1529 1530 1530 1530 1531 1531 1531 1531 1531 1531 1532 1532 1532 1533 1533 1533 1534 1534 1535 1536 1537 1538 1538 1539 1540 1540
1529 1529 1529 1529 1530 1530 1529 1529 1529 1529 1529 1529 1529 1529 1528 1528 1528 1528 1528 1528 1529 1529 1529 1529 1529 1529 1529 1530 1530 1530 1531 1531 1531 1532 1532 1533 1534 1535 1535 1536 1536 1537 1537
1528 1528 1528 1528 1529 1529 1529 1529 1529 1529 1528 1528 1528 1528 1528 1527 1527 1527 1527 1526 1526 1526 1527 1527 1527 1527 1527 1528 1528 1528 1528 1529 1529 1529 1530 1530 1531 1531 1532 1533 1533 1534 1534
1526 1527 1527 1527 1527 1528 1528 1528 1528 1528 1528 1527 1527 1527 1526 1526 1526 1526 1525 1525 1524 1524 1524 1524 1524 1525 1525 1525 1525 1525 1526 1526 1526 1526 1527 1527 1528 1528 1529 1529 1530 1531 1531
1525 1525 1525 1525 1526 1526 1526 1526 1527 1526 1526 1526 1526 1525 1525 1525 1525 1524 1524 1523 1523 1522 1522 1522 1522 1522 1522 1522 1522 1522 1523 1523 1523 1524 1524 1524 1525 1525 1526 1526 1527 1527 1528
1523 1523 1523 1524 1524 1524 1525 1525 1525 1525 1525 1524 1524 1524 1523 1523 1522 1522 1522 1522 1522 1520 1520 1519 1520 1520 1520 1520 1520 1519 1519 1520 1520 1521 1521 1521 1522 1522 1522 1523 1524 1524 1524
1520 1521 1521 1522 1522 1522 1522 1523 1523 1523 1523 1522 1522 1522 1521 1521 1520 1520 1520 1519 1519 1519 1517 1517 1517 1517 1517 1517 1517 1517 1517 1517 1517 1517 1517 1518 1518 1518 1519 1519 1520 1520 1521
1518 1519 1519 1519 1520 1520 1521 1521 1521 1521 1521 1520 1520 1520 1519 1519 1518 1518 1517 1517 1517 1516 1515 1514 1514 1514 1514 1514 1514 1514 1514 1513 1513 1514 1514 1514 1515 1515 1515 1515 1516 1516 1517
1516 1517 1517 1518 1518 1518 1518 1519 1519 1519 1519 1518 1518 1518 1517 1516 1516 1515 1515 1515 1514 1514 1513 1512 1511 1512 1511 1511 1511 1511 1511 1510 1510 1510 1511 1511 1511 1511 1511 1511 1511 1512 1512
1514 1515 1515 1515 1516 1516 1516 1516 1516 1516 1516 1516 1516 1515 1515 1514 1513 1513 1512 1512 1511 1511 1510 1510 1509 1509 1508 1508 1508 1508 1508 1508 1507 1507 1507 1507 1507 1507 1507 1508 1508 1508 1508
1512 1512 1512 1513 1513 1514 1514 1514 1514 1514 1513 1513 1513 1512 1512 1511 1511 1510 1509 1509 1508 1508 1507 1507 1506 1506 1506 1505 1505 1504 1504 1504 1504 1504 1504 1504 1504 1504 1504 1504 1504 1504 1504
1509 1510 1510 1511 1511 1511 1511 1511 1512 1511 1511 1510 1510 1510 1509 1509 1508 1508 1507 1505 1505 1504 1504 1504 1503 1503 1502 1502 1502 1502 1501 1501 1501 1501 1501 1501 1501 1500 1500 1500 1500 1500 1500
1507 1507 1507 1508 1508 1508 1509 1509 1509 1509 1508 1508 1507 1507 1506 1506 1505 1504 1503 1502 1502 1501 1500 1500 1500 1499 1499 1499 1499 1499 1498 1498 1497 1499 1498 1497 1498 1497 1497 1497 1496 1496 1496
1504 1504 1505 1505 1505 1505 1506 1506 1506 1506 1506 1505 1505 1504 1503 1502 1502 1501 1499 1499 1498 1498 1498 1497 1496 1496 1496 1496 1495 1495 1495 1495 1495 1495 1495 1493 1494 1493 1493 1493 1492 1492 1492
1500 1501 1502 1502 1502 1503 1503 1503 1503 1503 1503 1502 1502 1501 1500 1499 1498 1497 1496 1495 1495 1494 1494 1494 1493 1493 1493 1493 1493 1493 1492 1492 1491 1492 1491 1490 1490 1490 1489 1489 1489 1488 1488
1498 1498 1498 1499 1499 1500 1500 1500 1500 1499 1499 1499 1498 1498 1497 1496 1495 1494 1493 1492 1491 1491 1491 1490 1490 1490 1490 1490 1489 1489 1489 1488 1487 1488 1488 1487 1486 1486 1485 1485 1485 1484 1484
1495 1495 1495 1496 1496 1496 1497 1497 1497 1496 1496 1496 1495 1495 1494 1493 1492 1491 1490 1489 1488 1487 1487 1487 1487 1486 1486 1486 1486 1486 1486 1485 1484 1484 1484 1484 1483 1483 1481 1481 1481 1481 1480